Location: Powder Track
(41.8531°N, 72.3584°W)
Time: 23:18:27
(UTC+00:00)

X-37B - Pass Details

Date: 28 June 2021
Orbit: 383 x 392 km, 45.0° (Epoch: 01 July)

Event Time Altitude Azimuth Distance (km) Brightness Sun altitude
Rises 03:37:07 0° 288° (WNW) 2,257 5.0 -22.6°
Reaches altitude 10° 03:39:13 10° 292° (WNW) 1,402 3.9 -22.7°
Enters shadow 03:41:13 34° 307° (NW) 648 2.1 -22.8°
